Location: eljas
(40.1958°N, 6.8661°W)
Time: 18:17:53
(UTC+02:00)

ISS - All Passes

Search period start: 05 September 2015 00:00
Search period end: 15 September 2015 00:00
Orbit: 400 x 402 km, 51.6° (Epoch: 05 September)

Date Brightness Start Highest point End Pass type
(mag) Time Alt. Az. Time Alt. Az. Time Alt. Az.
05 Sep - 08:31:10 10° SSW 08:34:08 34° SE 08:37:08 10° ENE daylight
05 Sep - 10:07:39 10° W 10:10:34 29° NNW 10:13:29 10° NE daylight
05 Sep - 11:46:25 10° NNW 11:47:48 12° N 11:49:10 10° NNE daylight
05 Sep - 13:23:31 10° NNW 13:25:16 14° NNE 13:27:04 10° NE daylight
05 Sep - 14:59:11 10° NW 15:02:20 44° NNE 15:05:28 10° ESE daylight
05 Sep - 16:36:08 10° W 16:38:33 19° SW 16:40:54 10° S daylight
06 Sep - 07:38:46 10° S 07:40:57 17° SE 07:43:12 10° E daylight
06 Sep - 09:13:57 10° WSW 09:17:07 49° NNW 09:20:18 10° NE daylight
06 Sep - 10:52:15 10° NW 10:54:08 14° NNW 10:56:00 10° NNE daylight
06 Sep - 12:30:20 10° NNW 12:31:37 12° N 12:32:55 10° NNE daylight
06 Sep - 14:06:02 10° NW 14:08:52 27° NNE 14:11:43 10° E daylight
06 Sep - 15:42:18 10° WNW 15:45:21 38° SW 15:48:23 10° SSE daylight
07 Sep - 08:20:30 10° SW 08:23:45 84° SE 08:27:01 10° NE daylight
07 Sep - 09:58:07 10° WNW 10:00:32 18° NNW 10:02:54 10° NNE daylight
07 Sep - 11:36:52 10° NNW 11:37:56 11° N 11:38:59 10° NNE daylight
07 Sep - 13:12:55 10° NNW 13:15:19 19° NNE 13:17:45 10° ENE daylight
07 Sep - 14:48:48 10° NW 14:52:04 80° SW 14:55:18 10° SE daylight
08 Sep - 07:27:24 10° SSW 07:30:27 40° SE 07:33:32 10° ENE visible
08 Sep - 09:04:07 10° W 09:06:57 26° NNW 09:09:47 10° NE daylight
08 Sep - 10:42:56 10° NNW 10:44:13 12° N 10:45:29 10° NNE daylight
08 Sep - 12:19:48 10° NNW 12:21:41 14° NNE 12:23:37 10° NE daylight
08 Sep - 13:55:30 10° NW 13:58:41 51° NNE 14:01:52 10° ESE daylight
08 Sep - 15:32:41 10° W 15:34:51 16° SW 15:36:56 10° S daylight
09 Sep - 06:34:47 10° S 06:37:13 20° SE 06:39:43 10° E visible
09 Sep - 08:10:19 10° WSW 08:13:27 43° NNW 08:16:35 10° NE daylight
09 Sep - 09:48:46 10° NW 09:50:31 14° NNW 09:52:16 10° NNE daylight
09 Sep - 11:26:37 10° NNW 11:28:01 12° N 11:29:24 10° NNE daylight
09 Sep - 13:02:17 10° NW 13:05:13 30° NNE 13:08:09 10° E daylight
09 Sep - 14:38:40 10° WNW 14:41:38 32° SW 14:44:33 10° SSE daylight
10 Sep - 07:16:47 10° SW 07:20:02 83° NNW 07:23:18 10° NE visible
10 Sep - 08:54:34 10° WNW 08:56:52 17° NNW 08:59:08 10° NNE daylight
10 Sep - 10:33:13 10° NNW 10:34:17 11° N 10:35:22 10° NNE daylight
10 Sep - 12:09:08 10° NNW 12:11:39 20° NNE 12:14:11 10° ENE daylight
10 Sep - 13:45:06 10° WNW 13:48:20 68° SW 13:51:33 10° SE daylight
11 Sep - 06:23:33 10° SSW 06:26:41 47° SE 06:29:51 10° ENE visible
11 Sep - 08:00:31 10° W 08:03:15 24° NNW 08:05:59 10° NNE daylight
11 Sep - 09:39:21 10° NNW 09:40:33 11° N 09:41:44 10° NNE daylight
11 Sep - 11:16:00 10° NNW 11:18:00 15° NNE 11:20:03 10° NE daylight
11 Sep - 12:51:43 10° NW 12:54:58 60° NE 12:58:10 10° ESE daylight
11 Sep - 14:29:13 10° W 14:31:03 14° SW 14:32:47 10° SSW daylight
12 Sep - 05:30:46 10° S 05:33:25 23° SE 05:36:06 10° ENE visible
12 Sep - 07:06:37 10° W 07:09:42 38° NNW 07:12:46 10° NE visible
12 Sep - 08:45:10 10° NW 08:46:49 13° N 08:48:26 10° NNE daylight
12 Sep - 10:22:48 10° NNW 10:24:18 13° N 10:25:49 10° NE daylight
12 Sep - 11:58:28 10° NW 12:01:28 33° NNE 12:04:28 10° E daylight
12 Sep - 13:34:58 10° WNW 13:37:49 27° SW 13:40:37 10° SSE daylight
13 Sep - 04:38:58 10° SSE 04:40:11 12° SE 04:41:31 10° ESE visible
13 Sep - 06:12:59 10° WSW 06:16:14 71° NW 06:19:29 10° NE visible
13 Sep - 07:50:56 10° WNW 07:53:07 16° NNW 07:55:15 10° NNE daylight
13 Sep - 09:29:26 10° NNW 09:30:34 11° N 09:31:40 10° NNE daylight
13 Sep - 11:05:15 10° NNW 11:07:53 22° NNE 11:10:31 10° ENE daylight
13 Sep - 12:41:18 10° WNW 12:44:30 57° SW 12:47:41 10° SE daylight
14 Sep - 05:19:38 10° SW 05:22:50 56° SE 05:26:03 10° ENE visible
14 Sep - 06:56:48 10° WNW 06:59:27 22° NNW 07:02:05 10° NNE visible
14 Sep - 08:35:39 10° NNW 08:36:47 11° N 08:37:54 10° NNE daylight
14 Sep - 10:12:05 10° NNW 10:14:13 16° NNE 10:16:23 10° ENE daylight
14 Sep - 11:47:52 10° NW 11:51:07 70° NE 11:54:21 10° ESE daylight
14 Sep - 13:25:47 10° WSW 13:27:09 12° SW 13:28:24 10° SSW daylight
